Regional Weather Roundup
Issued by NWS

Home | Current Version | Previous Version | Text Only | Print | Product List | Glossary On
Versions: 1 2 3 4 5 6 7 8 9 10 11 12 13 14 15 16 17 18 19 20 21 22 23 24 25 26 27 28 29 30 31 32 33 34 35 36 37 38 39 40 41 42 43 44 45 46 47 48 49 50
000
ASUS43 KLOT 281910
RWRIL

ILLINOIS REGIONAL WEATHER ROUNDUP
NATIONAL WEATHER SERVICE CHICAGO/ROMEOVILLE IL
100 PM CST SUN DEC 28 2014

NOTE: "FAIR" INDICATES FEW OR NO CLOUDS BELOW 12,000 FEET WITH NO
SIGNIFICANT WEATHER AND/OR OBSTRUCTIONS TO VISIBILITY.

* THESE STATIONS ARE NOT UNDER NWS QUALITY CONTROL. THEY ALSO MAY NOT
  REPORT WEATHER SUCH AS PRECIPITATION OR FOG.

ILZ001-002-007-009-015-016-024-282000-
NORTHWEST ILLINOIS

CITY           SKY/WX    TMP DP  RH WIND       PRES   REMARKS
MOLINE         SUNNY     32  17  54 S6        30.18F WCI  26
STERLING*      SUNNY     34  16  47 W8        30.18S WCI  27
SAVANNA*       SUNNY     31  18  58 S5        30.18S WCI  27
$$

ILZ003-004-008-010-011-017-018-282000-
NORTH CENTRAL ILLINOIS

CITY           SKY/WX    TMP DP  RH WIND       PRES   REMARKS
ROCKFORD       MOSUNNY   33  18  53 W5        30.17F WCI  29
FREEPORT*      SUNNY     31  22  70 W6        30.17S WCI  25
ROCHELLE*      SUNNY     31  19  61 W6        30.16F WCI  25
DE KALB*       SUNNY     31  15  53 W8        30.15S WCI  23
PERU*          MOSUNNY   33  17  51 W5        30.18F WCI  28
$$

ILZ005-006-012>014-019>023-282000-
NORTHEAST ILLINOIS

CITY           SKY/WX    TMP DP  RH WIND       PRES   REMARKS
CHICAGO-OHARE  MOSUNNY   33  12  41 W8        30.13F WCI  26
CHICAGO-MIDWAY MOSUNNY   31  19  61 SW7       30.15F WCI  24
AURORA         SUNNY     32  16  51 W7        30.16F WCI  26
LANSING*       PTSUNNY   31  19  61 W7        30.16F WCI  24
JOLIET*        PTSUNNY   28  18  66 W5        30.17F WCI  23
WAUKEGAN       SUNNY     33  18  53 VRB6      30.13F WCI  28
DUPAGE AIRPORT SUNNY     33  16  49 W8        30.14F WCI  26
KANKAKEE*      PTSUNNY   30  23  75 W6        30.18S WCI  24
WHEELING       SUNNY     34  13  41 W8        30.15F WCI  27
MORRIS*        MOSUNNY   29  20  67 W5        30.17F WCI  24
ROMEOVILLE*    MOSUNNY   29  19  65 W6        30.16F WCI  23
NORTHERLY ISL    N/A     31  14  49 SW8         N/A  WCI  24
$$

LMZ740>746-282000-
SOUTHERN LAKE MICHIGAN

STATION/POSITION SKY/WX   TEMP    WIND        PRES    VSBY  WAVE
                          AIR SEA DIR/SP/G                  HT/PER
                          (F)     (DEG/KT/KT) (MB)    (MI)  (FT/S)
WAUKEGAN HARBOR            31     260/  9/ 13   N/A
HARRISON CRIB              29     250/  7/  9   N/A
BURNHAM HARBOR             32     290/  3/  8   N/A
CALUMET HARBOR             30     220/  6/  9 1020.0R
MICHIGAN CITY              29     240/ 11/ 12   N/A
$$

ILZ025>027-034>036-040-047-049-050-058-095>099-282000-
WEST-CENTRAL ILLINOIS

CITY           SKY/WX    TMP DP  RH WIND       PRES   REMARKS
QUINCY         SUNNY     33  21  61 SW8       30.19F WCI  26
GALESBURG*     SUNNY     33  22  65 S7        30.18F WCI  27
MACOMB*        SUNNY     34  22  62 W8        30.21F WCI  27
JACKSONVILLE*  CLOUDY    33  24  69 NW6       30.20S WCI  27
PITTSFIELD*    PTSUNNY   33  26  74 SW7       30.21F WCI  27
$$

ILZ028>032-037-038-041>044-048-051>054-059>061-282000-
CENTRAL ILLINOIS

CITY           SKY/WX    TMP DP  RH WIND       PRES   REMARKS
PONTIAC        PTSUNNY   30  20  67 W8        30.18F WCI  22
BLOOMINGTON    CLOUDY    31  20  63 W5        30.17F WCI  26
DECATUR        CLOUDY    31  22  69 NW9       30.19F WCI  23
PEORIA         MOSUNNY   33  19  56 W7        30.20F WCI  27
LACON*         MOSUNNY   31  18  58 CALM      30.18F
LINCOLN*       PTSUNNY   33  23  68 NW5       30.20F WCI  28
SPRINGFIELD    CLOUDY    32  23  69 W7        30.20F WCI  26
TAYLORVILLE    CLOUDY    30  25  80 W6        30.20F WCI  24
$$

ILZ033-039-045-046-055>057-062-063-282000-
EAST-CENTRAL ILLINOIS

CITY           SKY/WX    TMP DP  RH WIND       PRES   REMARKS
CHAMPAIGN      CLOUDY    30  21  69 NW10      30.18F WCI  21
DANVILLE*      CLOUDY    28  22  81 NW6       30.16S WCI  21
RANTOUL*       CLOUDY    31  20  63 NW9       30.17F WCI  23
MATTOON        CLOUDY    30  23  75 NW8       30.19S WCI  22
PARIS*         CLOUDY    30  24  79 NW5       30.20S WCI  25
$$

ILZ079-100>102-282000-
SOUTHWEST ILLINOIS

CITY           SKY/WX    TMP DP  RH WIND       PRES   REMARKS
BELLEVILLE     CLOUDY    34  27  75 VRB2      30.21F
CAHOKIA*       CLOUDY    35  26  69 NW3       30.21F
SPARTA*        CLOUDY    32  26  78 NW3       30.21F
$$

ILZ064>066-069>071-074>076-080>082-084>086-088>090-092>094-282000-
SOUTH-CENTRAL ILLINOIS

CITY           SKY/WX    TMP DP  RH WIND       PRES   REMARKS
CARBONDALE     CLOUDY    34  27  75 N7        30.21F WCI  28
CAIRO*         CLOUDY    38  31  74 N8        30.20F WCI  32
EFFINGHAM*     CLOUDY    32  22  67 W6        30.22S WCI  26
MARION         CLOUDY    34  28  80 N9        30.21F WCI  26
MT. VERNON     CLOUDY    32  25  74 N3        30.21F
CENTRALIA*     CLOUDY    32  26  78 NW5       30.20F WCI  27
SALEM*         CLOUDY    33  28  79 N5        30.21F WCI  29
METROPOLIS*    CLOUDY    36  33  88 N5        30.19F WCI  32
$$

ILZ067-068-072-073-078-083-087-091-282000-
SOUTHEAST ILLINOIS

CITY           SKY/WX    TMP DP  RH WIND       PRES   REMARKS
LAWRENCEVILLE  CLOUDY    33  27  78 NW8       30.21S WCI  26
FLORA*         CLOUDY    32  27  79 NW5       30.21F WCI  28
FAIRFIELD*     CLOUDY    33  28  81 N5        30.19F WCI  28
HARRISBURG*    CLOUDY    33  29  84 N6        30.21F WCI  28
ROBINSON*      CLOUDY    32  26  80 NW6       30.21F WCI  26
CARMI*         CLOUDY    35  32  89 N7        30.19F WCI  29
$$

ABBREVIATIONS USED IN REMARKS
   TC - TEMPERATURE IN CELSIUS
  WCI - WIND CHILL INDEX
   HX - HEAT INDEX
  VSB - VISIBILITY
$$



USA.gov is the U.S. government's official web portal to all federal, state and local government web resources and services.